| time (UTC) | temp C | wind direction | speed KPH | gust KPH | rain 1hr cm | rain 24hr cm | rain mn cm | humidity % | barometer mb |
| 20260505035648 | 12 | 250 | 4.8 | 4.8 | 0.00 | 0.00 | 0.00 | 45 | 1014.0 |
| 20260505035144 | 12 | 264 | 9.7 | 11.3 | 0.00 | 0.00 | 0.00 | 44 | 1013.8 |
| 20260505034640 | 12 | 232 | 3.2 | 4.8 | 0.00 | 0.00 | 0.00 | 44 | 1013.8 |
| 20260505034133 | 12 | 243 | 9.7 | 12.9 | 0.00 | 0.00 | 0.00 | 44 | 1013.6 |
| 20260505033629 | 12 | 234 | 3.2 | 6.4 | 0.00 | 0.00 | 0.00 | 45 | 1013.5 |
| 20260505033127 | 12 | 282 | 6.4 | 9.7 | 0.00 | 0.00 | 0.00 | 45 | 1013.5 |
| 20260505032625 | 12 | 242 | 8.0 | 11.3 | 0.00 | 0.00 | 0.00 | 45 | 1013.6 |
| 20260505032121 | 12 | 216 | 4.8 | 4.8 | 0.00 | 0.00 | 0.00 | 44 | 1013.5 |
| 20260505031619 | 12 | 273 | 14.5 | 16.1 | 0.00 | 0.00 | 0.00 | 44 | 1013.4 |
| 20260505031114 | 12 | 288 | 9.7 | 14.5 | 0.00 | 0.00 | 0.00 | 44 | 1013.1 |
| 20260505030612 | 12 | 283 | 8.0 | 9.7 | 0.00 | 0.00 | 0.00 | 44 | 1013.1 |
| 20260505030108 | 12 | 222 | 9.7 | 12.9 | 0.00 | 0.00 | 0.00 | 44 | 1013.1 |
| 20260505025603 | 12 | 276 | 9.7 | 12.9 | 0.00 | 0.00 | 0.00 | 44 | 1012.9 |
| 20260505025103 | 12 | 227 | 4.8 | 6.4 | 0.00 | 0.00 | 0.00 | 43 | 1013.2 |
| 20260505024559 | 12 | 269 | 9.7 | 11.3 | 0.00 | 0.00 | 0.00 | 43 | 1012.9 |
| 20260505024057 | 12 | 251 | 8.0 | 11.3 | 0.00 | 0.00 | 0.00 | 42 | 1012.9 |
| 20260505023554 | 13 | 225 | 9.7 | 17.7 | 0.00 | 0.00 | 0.00 | 41 | 1012.6 |
| 20260505023051 | 13 | 198 | 12.9 | 16.1 | 0.00 | 0.00 | 0.00 | 41 | 1012.4 |
| 20260505022548 | 13 | 239 | 9.7 | 12.9 | 0.00 | 0.00 | 0.00 | 41 | 1012.4 |
| 20260505022045 | 13 | 279 | 11.3 | 16.1 | 0.00 | 0.00 | 0.00 | 41 | 1012.3 |
| 20260505021542 | 13 | 271 | 9.7 | 14.5 | 0.00 | 0.00 | 0.00 | 41 | 1012.3 |
| 20260505021038 | 13 | 258 | 8.0 | 12.9 | 0.00 | 0.00 | 0.00 | 40 | 1012.6 |
| 20260505020533 | 13 | 267 | 11.3 | 17.7 | 0.00 | 0.00 | 0.00 | 40 | 1012.3 |
| 20260505020030 | 14 | 266 | 9.7 | 14.5 | 0.00 | 0.00 | 0.00 | 40 | 1012.4 |
| 20260505015527 | 14 | 254 | 4.8 | 9.7 | 0.00 | 0.00 | 0.00 | 40 | 1012.4 |
| 20260505015024 | 15 | 233 | 6.4 | 9.7 | 0.00 | 0.00 | 0.00 | 39 | 1012.3 |
| 20260505014521 | 15 | 228 | 6.4 | 9.7 | 0.00 | 0.00 | 0.00 | 38 | 1012.4 |
| 20260505014018 | 15 | 282 | 8.0 | 11.3 | 0.00 | 0.00 | 0.00 | 37 | 1012.3 |
| 20260505013515 | 15 | 218 | 6.4 | 9.7 | 0.00 | 0.00 | 0.00 | 37 | 1012.1 |
| 20260505013012 | 16 | 181 | 4.8 | 9.7 | 0.00 | 0.00 | 0.00 | 35 | 1012.0 |
| 20260505012510 | 16 | 177 | 6.4 | 6.4 | 0.00 | 0.00 | 0.00 | 28 | 1011.9 |
| 20260505012007 | 15 | 66 | 9.7 | 11.3 | 0.00 | 0.00 | 0.00 | 32 | 1011.7 |
| 20260505011502 | 15 | 12 | 9.7 | 12.9 | 0.00 | 0.00 | 0.00 | 29 | 1011.5 |
| 20260505011000 | 16 | 5 | 25.7 | 27.4 | 0.00 | 0.00 | 0.00 | 30 | 1011.4 |
| 20260505010455 | 16 | 54 | 8.0 | 11.3 | 0.00 | 0.00 | 0.00 | 27 | 1011.9 |
| 20260505005952 | 18 | 354 | 16.1 | 20.9 | 0.00 | 0.00 | 0.00 | 24 | 1012.0 |
| 20260505005448 | 18 | 291 | 8.0 | 11.3 | 0.00 | 0.00 | 0.00 | 24 | 1011.5 |
| 20260505004946 | 19 | 294 | 6.4 | 9.7 | 0.00 | 0.00 | 0.00 | 24 | 1011.9 |
| 20260505004443 | 18 | 261 | 4.8 | 4.8 | 0.00 | 0.00 | 0.00 | 24 | 1011.7 |
| 20260505003940 | 19 | 269 | 9.7 | 11.3 | 0.00 | 0.00 | 0.00 | 27 | 1011.8 |
| 20260505003437 | 18 | 182 | 3.2 | 6.4 | 0.00 | 0.00 | 0.00 | 29 | 1012.0 |
| 20260505002933 | 18 | 213 | 17.7 | 22.5 | 0.00 | 0.00 | 0.00 | 30 | 1012.0 |
| 20260505002429 | 17 | 224 | 17.7 | 24.1 | 0.00 | 0.00 | 0.00 | 33 | 1011.8 |
| 20260505001928 | 17 | 223 | 9.7 | 12.9 | 0.00 | 0.00 | 0.00 | 32 | 1011.8 |
| 20260505001425 | 17 | 277 | 14.5 | 24.1 | 0.00 | 0.00 | 0.00 | 33 | 1011.9 |
| 20260505000922 | 17 | 284 | 16.1 | 24.1 | 0.00 | 0.00 | 0.00 | 33 | 1012.1 |
| 20260505000420 | 17 | 262 | 11.3 | 12.9 | 0.00 | 0.00 | 0.00 | 32 | 1012.3 |
| 20260504235916 | 18 | 173 | 8.0 | 11.3 | 0.00 | 0.00 | 0.00 | 31 | 1012.0 |
| 20260504235414 | 17 | 218 | 14.5 | 17.7 | 0.00 | 0.00 | 0.00 | 31 | 1012.1 |
| 20260504234910 | 18 | 194 | 11.3 | 12.9 | 0.00 | 0.00 | 0.00 | 31 | 1012.0 |
| 20260504234408 | 18 | 213 | 6.4 | 6.4 | 0.00 | 0.00 | 0.00 | 24 | 1011.8 |
| 20260504233904 | 17 | 170 | 0.0 | 0.0 | 0.00 | 0.00 | 0.00 | 25 | 1011.9 |
| 20260504233359 | 18 | 214 | 4.8 | 4.8 | 0.00 | 0.00 | 0.00 | 24 | 1012.1 |
| 20260504232856 | 18 | 260 | 6.4 | 6.4 | 0.00 | 0.00 | 0.00 | 23 | 1011.9 |
| 20260504232354 | 18 | 2 | 11.3 | 14.5 | 0.00 | 0.00 | 0.00 | 24 | 1012.1 |
| 20260504231850 | 17 | 328 | 6.4 | 9.7 | 0.00 | 0.00 | 0.00 | 25 | 1011.8 |
| 20260504231347 | 18 | 324 | 8.0 | 9.7 | 0.00 | 0.00 | 0.00 | 24 | 1011.8 |
| 20260504230843 | 18 | 258 | 8.0 | 11.3 | 0.00 | 0.00 | 0.00 | 23 | 1011.9 |
| 20260504230341 | 18 | 339 | 1.6 | 3.2 | 0.00 | 0.00 | 0.00 | 21 | 1011.9 |
| 20260504225839 | 20 | 234 | 8.0 | 12.9 | 0.00 | 0.00 | 0.00 | 21 | 1011.7 |
| 20260504225335 | 19 | 289 | 11.3 | 12.9 | 0.00 | 0.00 | 0.00 | 22 | 1011.9 |
| 20260504224833 | 18 | 258 | 4.8 | 6.4 | 0.00 | 0.00 | 0.00 | 24 | 1011.8 |
| 20260504224330 | 18 | 279 | 4.8 | 9.7 | 0.00 | 0.00 | 0.00 | 23 | 1011.9 |
| 20260504223827 | 18 | 273 | 3.2 | 4.8 | 0.00 | 0.00 | 0.00 | 23 | 1012.0 |
| 20260504223322 | 18 | 285 | 9.7 | 11.3 | 0.00 | 0.00 | 0.00 | 22 | 1011.9 |
| 20260504222819 | 18 | 280 | 11.3 | 14.5 | 0.00 | 0.00 | 0.00 | 23 | 1011.9 |
| 20260504222316 | 18 | 296 | 14.5 | 16.1 | 0.00 | 0.00 | 0.00 | 23 | 1011.9 |
| 20260504221814 | 18 | 297 | 17.7 | 24.1 | 0.00 | 0.00 | 0.00 | 23 | 1012.1 |
| 20260504221310 | 20 | 311 | 14.5 | 20.9 | 0.00 | 0.00 | 0.00 | 22 | 1011.9 |
| 20260504220808 | 18 | 186 | 3.2 | 4.8 | 0.00 | 0.00 | 0.00 | 22 | 1012.1 |
| 20260504220304 | 18 | 257 | 6.4 | 6.4 | 0.00 | 0.00 | 0.00 | 21 | 1012.3 |
| 20260504215802 | 19 | 285 | 9.7 | 12.9 | 0.00 | 0.00 | 0.00 | 19 | 1012.0 |
| 20260504215258 | 20 | 252 | 4.8 | 6.4 | 0.00 | 0.00 | 0.00 | 19 | 1012.3 |
| 20260504214754 | 20 | 288 | 9.7 | 11.3 | 0.00 | 0.00 | 0.00 | 19 | 1012.3 |
| 20260504214251 | 20 | 216 | 3.2 | 3.2 | 0.00 | 0.00 | 0.00 | 19 | 1012.4 |
| 20260504213747 | 20 | 257 | 19.3 | 24.1 | 0.00 | 0.00 | 0.00 | 19 | 1012.3 |
| 20260504213243 | 19 | 322 | 3.2 | 4.8 | 0.00 | 0.00 | 0.00 | 20 | 1012.9 |
| 20260504212741 | 20 | 283 | 8.0 | 12.9 | 0.00 | 0.00 | 0.00 | 20 | 1012.6 |
| 20260504212237 | 20 | 196 | 1.6 | 3.2 | 0.00 | 0.00 | 0.00 | 21 | 1012.7 |
| 20260504211735 | 20 | 175 | 3.2 | 4.8 | 0.00 | 0.00 | 0.00 | 20 | 1012.6 |
| 20260504211231 | 20 | 278 | 12.9 | 16.1 | 0.00 | 0.00 | 0.00 | 20 | 1012.6 |
| 20260504210728 | 20 | 276 | 11.3 | 14.5 | 0.00 | 0.00 | 0.00 | 20 | 1012.7 |
| 20260504210225 | 19 | 287 | 9.7 | 9.7 | 0.00 | 0.00 | 0.00 | 20 | 1013.0 |
| 20260504205722 | 18 | 291 | 4.8 | 9.7 | 0.00 | 0.00 | 0.00 | 21 | 1012.9 |
| 20260504205220 | 19 | 281 | 16.1 | 20.9 | 0.00 | 0.00 | 0.00 | 20 | 1013.1 |
| 20260504204718 | 18 | 335 | 16.1 | 20.9 | 0.00 | 0.00 | 0.00 | 20 | 1013.0 |
| 20260504204216 | 18 | 194 | 4.8 | 6.4 | 0.00 | 0.00 | 0.00 | 20 | 1013.1 |
| 20260504203715 | 20 | 282 | 14.5 | 20.9 | 0.00 | 0.00 | 0.00 | 20 | 1013.1 |
| 20260504203212 | 19 | 10 | 8.0 | 11.3 | 0.00 | 0.00 | 0.00 | 20 | 1013.4 |
| 20260504202712 | 20 | 275 | 14.5 | 20.9 | 0.00 | 0.00 | 0.00 | 20 | 1013.0 |
| 20260504202209 | 19 | 300 | 12.9 | 16.1 | 0.00 | 0.00 | 0.00 | 20 | 1013.2 |
| 20260504201706 | 19 | 273 | 12.9 | 17.7 | 0.00 | 0.00 | 0.00 | 21 | 1013.2 |
| 20260504201204 | 20 | 292 | 19.3 | 22.5 | 0.00 | 0.00 | 0.00 | 21 | 1013.2 |
| 20260504200701 | 20 | 239 | 1.6 | 3.2 | 0.00 | 0.00 | 0.00 | 19 | 1013.4 |
| 20260504200157 | 18 | 294 | 4.8 | 6.4 | 0.00 | 0.00 | 0.00 | 21 | 1013.4 |
| 20260504195653 | 18 | 10 | 6.4 | 9.7 | 0.00 | 0.00 | 0.00 | 21 | 1013.5 |
| 20260504195149 | 20 | 200 | 9.7 | 11.3 | 0.00 | 0.00 | 0.00 | 20 | 1013.5 |
| 20260504194646 | 20 | 136 | 0.0 | 1.6 | 0.00 | 0.00 | 0.00 | 20 | 1013.6 |
| 20260504194142 | 18 | 289 | 8.0 | 11.3 | 0.00 | 0.00 | 0.00 | 21 | 1013.6 |
| 20260504193639 | 18 | 280 | 6.4 | 6.4 | 0.00 | 0.00 | 0.00 | 21 | 1013.7 |
| 20260504193137 | 19 | 251 | 6.4 | 9.7 | 0.00 | 0.00 | 0.00 | 20 | 1014.0 |
| 20260504192635 | 20 | 196 | 1.6 | 1.6 | 0.00 | 0.00 | 0.00 | 21 | 1014.0 |
| 20260504192133 | 19 | 234 | 4.8 | 4.8 | 0.00 | 0.00 | 0.00 | 22 | 1014.0 |
| 20260504191631 | 19 | 230 | 3.2 | 4.8 | 0.00 | 0.00 | 0.00 | 20 | 1013.8 |
| 20260504191127 | 20 | 235 | 6.4 | 6.4 | 0.00 | 0.00 | 0.00 | 20 | 1014.1 |
| 20260504190623 | 19 | 197 | 8.0 | 11.3 | 0.00 | 0.00 | 0.00 | 21 | 1014.1 |
| 20260504190120 | 19 | 7 | 0.0 | 0.0 | 0.00 | 0.00 | 0.00 | 19 | 1014.2 |
| 20260504185616 | 19 | 294 | 12.9 | 14.5 | 0.00 | 0.00 | 0.00 | 20 | 1014.5 |
| 20260504185113 | 18 | 15 | 6.4 | 9.7 | 0.00 | 0.00 | 0.00 | 20 | 1014.3 |
| 20260504184609 | 18 | 12 | 8.0 | 11.3 | 0.00 | 0.00 | 0.00 | 20 | 1014.3 |
| 20260504184104 | 19 | 305 | 3.2 | 6.4 | 0.00 | 0.00 | 0.00 | 20 | 1014.3 |
| 20260504183601 | 18 | 355 | 1.6 | 3.2 | 0.00 | 0.00 | 0.00 | 21 | 1014.3 |
| 20260504183059 | 18 | 301 | 1.6 | 4.8 | 0.00 | 0.00 | 0.00 | 22 | 1014.6 |
| 20260504182556 | 18 | 2 | 4.8 | 6.4 | 0.00 | 0.00 | 0.00 | 21 | 1014.7 |
| 20260504182053 | 17 | 51 | 0.0 | 0.0 | 0.00 | 0.00 | 0.00 | 21 | 1014.9 |
| 20260504181550 | 17 | 286 | 1.6 | 1.6 | 0.00 | 0.00 | 0.00 | 22 | 1014.9 |
| 20260504181048 | 18 | 342 | 4.8 | 6.4 | 0.00 | 0.00 | 0.00 | 22 | 1015.1 |
| 20260504180547 | 17 | 338 | 0.0 | 0.0 | 0.00 | 0.00 | 0.00 | 22 | 1015.1 |
| 20260504180046 | 17 | 287 | 4.8 | 4.8 | 0.00 | 0.00 | 0.00 | 21 | 1015.1 |
| 20260504175542 | 19 | 278 | 8.0 | 9.7 | 0.00 | 0.00 | 0.00 | 21 | 1015.2 |
| 20260504175039 | 20 | 275 | 0.0 | 1.6 | 0.00 | 0.00 | 0.00 | 22 | 1015.2 |
| 20260504174537 | 18 | 278 | 0.0 | 1.6 | 0.00 | 0.00 | 0.00 | 22 | 1015.2 |
| 20260504174034 | 18 | 113 | 1.6 | 1.6 | 0.00 | 0.00 | 0.00 | 21 | 1015.6 |
| 20260504173531 | 17 | 288 | 4.8 | 4.8 | 0.00 | 0.00 | 0.00 | 21 | 1015.3 |
| 20260504173028 | 17 | 275 | 4.8 | 6.4 | 0.00 | 0.00 | 0.00 | 22 | 1015.4 |
| 20260504172524 | 18 | 22 | 1.6 | 1.6 | 0.00 | 0.00 | 0.00 | 22 | 1015.3 |
| 20260504172021 | 17 | 151 | 4.8 | 6.4 | 0.00 | 0.00 | 0.00 | 23 | 1015.2 |
| 20260504171518 | 18 | 270 | 4.8 | 6.4 | 0.00 | 0.00 | 0.00 | 24 | 1015.4 |
| 20260504171015 | 17 | 276 | 3.2 | 3.2 | 0.00 | 0.00 | 0.00 | 23 | 1015.4 |
| 20260504170510 | 17 | 289 | 6.4 | 9.7 | 0.00 | 0.00 | 0.00 | 24 | 1015.6 |
| 20260504160425 | 16 | 238 | 6.4 | 6.4 | 0.00 | 0.00 | 0.00 | 28 | 1015.6 |
| 20260504150849 | 12 | 14 | 3.2 | 3.2 | 0.00 | 0.00 | 0.00 | 38 | 1016.2 |
| 20260504150346 | 12 | 21 | 1.6 | 3.2 | 0.00 | 0.00 | 0.00 | 38 | 1016.3 |
| 20260504141316 | 10 | 158 | 0.0 | 0.0 | 0.00 | 0.00 | 0.00 | 43 | 1016.7 |
| 20260504140812 | 8 | 148 | 0.0 | 0.0 | 0.00 | 0.00 | 0.00 | 45 | 1016.5 |
| 20260504140308 | 7 | 124 | 0.0 | 0.0 | 0.00 | 0.00 | 0.00 | 48 | 1016.5 |
| 20260504130737 | 7 | 222 | 11.3 | 14.5 | 0.00 | 0.00 | 0.00 | 45 | 1016.0 |
| 20260504130233 | 7 | 222 | 9.7 | 14.5 | 0.00 | 0.00 | 0.00 | 44 | 1015.8 |
| 20260504120156 | 3 | 208 | 0.0 | 0.0 | 0.00 | 0.00 | 0.00 | 55 | 1015.6 |
| 20260504110624 | 5 | 183 | 3.2 | 4.8 | 0.00 | 0.00 | 0.00 | 51 | 1015.7 |
| 20260504110120 | 5 | 212 | 6.4 | 9.7 | 0.00 | 0.00 | 0.00 | 51 | 1015.8 |
| 20260504100545 | 5 | 211 | 1.6 | 4.8 | 0.00 | 0.00 | 0.00 | 51 | 1015.8 |
| 20260504081939 | 5 | 226 | 0.0 | 1.6 | 0.00 | 0.00 | 0.00 | 48 | 1016.8 |
| 20260504081436 | 5 | 229 | 1.6 | 3.2 | 0.00 | 0.00 | 0.00 | 49 | 1016.8 |
| 20260504080932 | 4 | 223 | 1.6 | 4.8 | 0.00 | 0.00 | 0.00 | 52 | 1016.9 |
| 20260504080429 | 4 | 209 | 3.2 | 4.8 | 0.00 | 0.00 | 0.00 | 51 | 1016.9 |
| 20260504070357 | 4 | 217 | 4.8 | 9.7 | 0.00 | 0.00 | 0.00 | 52 | 1017.4 |
| 20260504050738 | 6 | 200 | 0.0 | 0.0 | 0.00 | 0.00 | 0.00 | 42 | 1017.6 |
| 20260504050235 | 7 | 185 | 0.0 | 0.0 | 0.00 | 0.00 | 0.00 | 41 | 1017.8 |
| 20260504045732 | 7 | 206 | 0.0 | 0.0 | 0.00 | 0.00 | 0.00 | 40 | 1017.6 |
| 20260504045227 | 7 | 211 | 0.0 | 0.0 | 0.00 | 0.00 | 0.00 | 39 | 1017.5 |
| 20260504044725 | 8 | 209 | 0.0 | 0.0 | 0.00 | 0.00 | 0.00 | 37 | 1017.8 |
| 20260504044223 | 8 | 194 | 0.0 | 0.0 | 0.00 | 0.00 | 0.00 | 36 | 1017.8 |
| 20260504043720 | 9 | 199 | 0.0 | 0.0 | 0.00 | 0.00 | 0.00 | 35 | 1017.8 |
| 20260504043216 | 9 | 198 | 0.0 | 0.0 | 0.00 | 0.00 | 0.00 | 34 | 1017.6 |
| 20260504042714 | 10 | 200 | 0.0 | 0.0 | 0.00 | 0.00 | 0.00 | 32 | 1017.9 |
| 20260504042210 | 11 | 215 | 0.0 | 0.0 | 0.00 | 0.00 | 0.00 | 31 | 1017.6 |
| 20260504041706 | 11 | 253 | 0.0 | 0.0 | 0.00 | 0.00 | 0.00 | 29 | 1017.8 |
| 20260504041202 | 11 | 225 | 0.0 | 0.0 | 0.00 | 0.00 | 0.00 | 29 | 1017.8 |
| 20260504040659 | 11 | 240 | 0.0 | 0.0 | 0.00 | 0.00 | 0.00 | 28 | 1017.9 |
| 20260504040156 | 11 | 278 | 1.6 | 1.6 | 0.00 | 0.00 | 0.00 | 28 | 1017.8 |